[keps] orb09120.2l.amsat

Ray Hoad r.hoad at att.net
Thu Apr 30 19:21:47 PDT 2009


SB KEPS @ AMSAT  $ORB09120.N
2Line Orbital Elements 09120.AMSAT

HR AMSAT ORBITAL ELEMENTS FOR AMATEUR SATELLITES IN NASA FORMAT
FROM WA5QGD FORT WORTH,TX April 30, 2009
Send Subscribe/unsubscribe to KEPS at 
http://www.amsat.org/mailman/listinfo/keps
BID: ORB09120.N

DECODE 2-LINE ELSETS WITH THE FOLLOWING KEY:
1 AAAAAU 00  0  0 BBBBB.BBBBBBBB  .CCCCCCCC  00000-0  00000-0 0  DDDZ
2 AAAAA EEE.EEEE FFF.FFFF GGGGGGG HHH.HHHH III.IIII JJ.JJJJJJJJKKKKKZ
KEY: A-CATALOGNUM B-EPOCHTIME C-DECAY D-ELSETNUM E-INCLINATION F-RAAN
G-ECCENTRICITY H-ARGPERIGEE I-MNANOM J-MNMOTION K-ORBITNUM Z-CHECKSUM

TO ALL RADIO AMATEURS BT

AO-10
1 14129U 83058B   09118.18873775 -.00000266  00000-0  10000-3 0 06510
2 14129 025.9286 159.6671 5993688 217.9761 078.9282 02.05873042194592
AO-40
1 26609U 00072B   09118.36733132 -.00000322  00000-0  10000-3 0  2219
2 26609 009.2797 021.7278 7965204 198.8043 090.6082 01.25583743 39007
SO-33
1 25509U 98061B   09119.68633864 -.00000032  00000-0 -20645-4 0 04431
2 25509 031.4356 326.7489 0355156 274.3443 081.6686 14.28250666548895
AO-07
1 07530U 74089B   09119.72609173 -.00000027  00000-0  10000-3 0 04661
2 07530 101.4306 146.1766 0011693 005.4526 354.6673 12.53575632576646
RS-15
1 23439U 94085A   09119.73155766 -.00000039  00000-0  10000-3 0 02065
2 23439 064.8153 343.1762 0147404 060.9697 300.5904 11.27553439590659
FO-29
1 24278U 96046B   09119.78676955 -.00000033  00000-0 -37011-6 0 00358
2 24278 098.5611 000.3159 0351386 115.7494 248.0348 13.52942988627207
UO-11
1 14781U 84021B   09120.27077720 -.00000242  00000-0 -24997-4 0  9489
2 14781 098.1104 164.3046 0009952 127.9587 232.2531 14.79706314350743
RS-22
1 27939U 03042A   09120.67523735  .00000080  00000-0  24313-4 0  7789
2 27939 097.9511 357.2582 0012493 283.7454 076.2375 14.63311755298621
PO-63
1 29712U 07001D   09120.70807658  .00000438  00000-0  63860-4 0  4449
2 29712 097.8320 178.2421 0015508 070.1979 290.0895 14.80522612124448
VO-52
1 28650U 05017B   09120.77381374 -.00000067  00000-0 -19268-5 0  2142
2 28650 097.7445 183.9141 0027175 181.8482 178.2610 14.81576940215626
AO-16
1 20439U 90005D   09119.42688895 -.00000006  00000-0  13096-4 0 05943
2 20439 098.2762 090.0597 0010225 320.9390 039.1055 14.31822253006178
AO-27
1 22825U 93061C   09119.63142222 -.00000043  00000-0 -47156-6 0  2339
2 22825 098.4338 074.5941 0009180 051.7209 308.4808 14.29263718812979
CP3
1 31128U 07012M   09119.63940540 -.00000046  00000-0  00000-0 0 06185
2 31128 097.9890 174.9325 0104029 075.7232 285.5498 14.52037022107850
NO-44
1 26931U 01043C   09119.66039957 -.00000255  00000-0 -67374-4 0 01586
2 26931 067.0512 189.3618 0005307 272.5548 087.4945 14.29553382395644
LO-19
1 20442U 90005G   09119.91107455 -.00000063  00000-0 -82798-5 0 05130
2 20442 098.2379 097.9696 0011108 314.5802 045.4482 14.32058041006407
CP4
1 31132U 07012Q   09120.15222967  .00000158  00000-0  45009-4 0  5943
2 31132 097.9986 179.1896 0086768 063.3890 297.6162 14.55201137108040
AO-51
1 28375U 04025K   09120.45762449  .00000005  00000-0  14525-4 0  3764
2 28375 098.0545 132.8428 0083243 270.6699 088.4956 14.40639906254086
IO-26
1 22826U 93061D   09120.47009369 -.00000036  00000-0  22585-5 0  9570
2 22826 098.4262 076.1750 0009631 045.9708 314.2265 14.29515303813199
CO-55
1 27844U 03031E   09120.52192696  .00000032  00000-0  35369-4 0  5681
2 27844 098.7148 130.3614 0008962 283.0591 076.9575 14.20634239302496
SO-50
1 27607U 02058C   09120.54491094  .00000048  00000-0  29545-4 0  8737
2 27607 064.5582 169.7871 0072854 215.9590 143.6602 14.71432156341666
CO-57
1 27848U 03031J   09120.56326383  .00000018  00000-0  28843-4 0  5145
2 27848 098.7159 129.4632 0009071 289.1420 070.8788 14.20436743302467
CO-56
1 28941U 06005C   09120.58258952  .00034106  30466-5  13883-3 0   378
2 28941 098.1390 286.3015 0096919 311.1722 048.1166 15.79440784179723
GO-32
1 25397U 98043D   09120.61580063 -.00000086  00000-0 -19852-4 0  8816
2 25397 098.3284 145.4981 0001979 061.6806 298.4579 14.23157423561364
CO-65
1 32785U 08021C   09120.71119538  .00000109  00000-0  20721-4 0  3522
2 32785 097.9459 185.0603 0014589 181.4169 178.6997 14.81474338 54414
SOHLA-1
1 33496U 09002E   09120.72066172  .00000022  00000-0  11999-4 0  3002
2 33496 098.0337 230.7797 0007960 076.4043 283.8051 14.69431009 14300
NOAA-11
1 19531U 88089A   09119.34247031 -.00000155  00000-0 -57408-4 0 06039
2 19531 098.7819 210.0500 0010756 247.1569 112.8467 14.14893533062619
NOAA-15
1 25338U 98030A   09119.66648152 -.00000133  00000-0 -38546-4 0 09077
2 25338 098.5835 109.9448 0010379 193.4016 166.6896 14.24754767569863
NOAA-16
1 26536U 00055A   09119.69987055  .00000235  00000-0  15214-3 0 03834
2 26536 099.1769 122.1958 0011324 060.5112 299.7179 14.12517125443452
NOAA-10
1 16969U 86073A   09119.71951223  .00000003  00000-0  19355-4 0 05935
2 16969 098.6943 146.6233 0012223 343.0246 017.0514 14.27385079176591
NOAA-17
1 27453U 02032A   09119.73086370 -.00000094  00000-0 -22360-4 0 03921
2 27453 098.4873 180.4605 0010697 263.5547 096.4404 14.24058174355850
NOAA-14
1 23455U 94089A   09119.76220511  .00000277  00000-0  16981-3 0 05982
2 23455 098.9105 197.6076 0008756 332.9268 027.1448 14.13763141739082
NOAA-18
1 28654U 05018A   09119.76551991  .00000098  00000-0  78500-4 0 08813
2 28654 098.9053 063.3873 0015008 136.8546 223.3825 14.11251864203124
OKEAN-4
1 23317U 94066A   09119.77949819  .00000287  00000-0  32468-4 0 08954
2 23317 082.5425 019.6619 0022382 159.7890 200.4209 14.82692296785198
MET-2/21
1 22782U 93055A   09119.80113197  .00000042  00000-0  24228-4 0 04479
2 22782 082.5499 220.3817 0023850 120.7027 239.6492 13.83636731790912
NOAA-19
1 33591U 09005A   09119.80603407 -.00000102  00000-0 -32804-4 0 00866
2 33591 098.7444 066.8344 0014703 024.5297 335.6566 14.10952713011610
MET-3/5
1 21655U 91056A   09119.90883332  .00000051  00000-0  10000-3 0 06847
2 21655 082.5482 240.5918 0012817 306.2527 053.7412 13.17018785851279
NOAA-12
1 21263U 91032A   09119.95931099  .00000014  00000-0  24933-4 0 01200
2 21263 098.7718 127.9982 0011460 288.3287 071.6646 14.25576043933523
RESURS
1 25394U 98043A   09120.66720404 -.00000034  00000-0  31399-5 0  2012
2 25394 098.3472 155.4280 0002043 020.9244 339.2019 14.24181835561638
OKEAN-0
1 25860U 99039A   09120.77490461  .00000011  00000-0  88868-5 0  6645
2 25860 097.7831 103.8490 0001248 042.9901 317.1403 14.73569752526161
FENGYUN1
1 25730U 99025A   09120.81082191 -.00000047  00000-0 -22256-5 0  7447
2 25730 098.7538 092.3970 0022499 357.0866 003.0169 14.07964973513659
CO-66
1 32791U 08021J   09119.37836480  .00000147  00000-0  25570-4 0 03362
2 32791 097.9483 183.6386 0015627 185.3470 174.7572 14.81420088054185
PO-34
1 25520U 98064B   09119.45209724  .00000299  00000-0  49644-5 0 02405
2 25520 028.4601 221.2057 0005431 137.1903 222.9121 15.17327788581241
CO-58
1 28895U 05043F   09119.67136668  .00000217  00000-0  54891-4 0 02902
2 28895 098.0675 011.6338 0018589 136.7369 223.5305 14.59762864186655
CAPE1
1 31130U 07012P   09119.83752121 -.00000008  00000-0  87724-5 0 05894
2 31130 097.9959 175.1395 0104031 075.5365 285.7329 14.52051946107673
AAUSAT2
1 32788U 08021F   09119.85325114 -.00000079  00000-0 -31738-5 0 03469
2 32788 097.9471 184.1296 0015489 185.5815 174.5195 14.81707166054291
RS-30
1 32953U 08025A   09120.45935586  .00000010  00000-0  00000 0 0  2920
2 32953 082.4974 286.2953 0018167 283.7282 076.1778 12.43000691 42466
MAST
1 31126U 07012K   09120.74141999  .00000093  00000-0  31390-4 0  5830
2 31126 097.9915 177.7087 0095831 067.4105 293.7222 14.53492529108146
DO-64
1 32789U 08021G   09120.75212448  .00000625  00000-0  86105-4 0  3547
2 32789 097.9504 185.1532 0015568 181.4756 178.6413 14.81679958 54420
COMPASS
1 32787U 08021E   09120.75935354  .00000332  00000-0  49038-4 0  3441
2 32787 097.9441 184.9754 0015642 182.2957 177.8184 14.81587813 54420
FALCON
1 30776U 07006E   09120.81002071  .00000313  00000-0  25736-4 0  5571
2 30776 035.4341 026.8494 0001737 262.9556 097.0963 15.03226017117966
HUBBLE
1 20580U 90037B   09120.82820089  .00000300  00000-0  10300-4 0  3774
2 20580 028.4685 051.3398 0003901 159.8542 200.2206 15.00478951842732
ISS
1 25544U 98067A   09120.90148148  .00009021  00000-0  70424-4 0  7729
2 25544 051.6396 189.3708 0009000 309.9180 027.5376 15.72517156598504
/EX






More information about the Keps mailing list